Photometre #852[NE_1.6_Dp] Lerwick_MO AOT

File : 20220829_852.hum

29/08/2022,06:04:57,TEMP=12.7,BA=5.52,STAT.b=8.0
29/08/2022,06:18:01,TEMP=12.7,BA=5.44,STAT.b=8.0
29/08/2022,06:22:38,TEMP=12.7,BA=5.44,STAT.b=8.0
29/08/2022,06:35:43,TEMP=12.7,BA=5.48,STAT.b=8.0
29/08/2022,06:36:09,TEMP=12.7,BA=5.48,STAT.b=8.0
29/08/2022,06:49:13,TEMP=12.7,BA=5.48,STAT.b=8.0
29/08/2022,06:51:15,TEMP=12.7,BA=5.52,STAT.b=8.0
29/08/2022,06:54:14,TEMP=12.7,BA=5.52,STAT.b=8.0
29/08/2022,06:55:21,TEMP=12.7,BA=5.52,STAT.b=8.0
29/08/2022,06:57:14,TEMP=12.7,BA=5.52,STAT.b=8.0
29/08/2022,07:00:15,TEMP=12.7,BA=5.52,STAT.b=8.0
29/08/2022,07:01:39,TEMP=12.7,BA=5.52,STAT.b=8.0
29/08/2022,07:14:43,TEMP=12.7,BA=5.48,STAT.b=8.0
29/08/2022,07:15:15,TEMP=12.7,BA=5.48,STAT.b=8.0
29/08/2022,07:16:41,TEMP=12.7,BA=5.48,STAT.b=8.0
29/08/2022,07:29:45,TEMP=12.7,BA=5.48,STAT.b=8.0
29/08/2022,07:30:15,TEMP=12.7,BA=5.48,STAT.b=8.0
29/08/2022,07:33:14,TEMP=12.7,BA=5.48,STAT.b=8.0
29/08/2022,07:36:10,TEMP=12.7,BA=5.48,STAT.b=8.0
29/08/2022,07:39:15,TEMP=12.7,BA=5.48,STAT.b=8.0
29/08/2022,07:42:15,TEMP=12.7,BA=5.52,STAT.b=8.0
29/08/2022,07:45:15,TEMP=12.7,BA=5.52,STAT.b=8.0
29/08/2022,07:48:14,TEMP=12.7,BA=5.52,STAT.b=8.0
29/08/2022,07:48:32,TEMP=12.7,BA=5.52,STAT.b=8.0
29/08/2022,08:02:46,TEMP=12.7,BA=5.44,STAT.b=8.0
29/08/2022,08:18:22,TEMP=12.7,BA=5.44,STAT.D,ExtBa=12.40
29/08/2022,08:19:56,TEMP=13.1,BA=5.44,STAT.b=8.0
29/08/2022,08:20:18,TEMP=13.1,BA=5.48,STAT.b=8.0
29/08/2022,08:36:22,TEMP=12.9,BA=5.44,STAT.D,ExtBa=12.30
29/08/2022,08:37:56,TEMP=13.3,BA=5.44,STAT.b=8.0
29/08/2022,08:42:14,TEMP=13.3,BA=5.52,STAT.b=8.0
29/08/2022,08:55:17,TEMP=13.3,BA=5.44,STAT.b=8.0
29/08/2022,08:57:15,TEMP=13.3,BA=5.44,STAT.b=8.0
29/08/2022,09:00:15,TEMP=13.3,BA=5.52,STAT.b=8.0
29/08/2022,09:03:15,TEMP=13.3,BA=5.52,STAT.b=8.0
29/08/2022,09:06:15,TEMP=13.3,BA=5.52,STAT.b=8.0
29/08/2022,09:06:32,TEMP=13.3,BA=5.52,STAT.b=8.0
29/08/2022,09:09:15,TEMP=13.3,BA=5.52,STAT.b=8.0
29/08/2022,09:12:15,TEMP=13.3,BA=5.52,STAT.b=8.0
29/08/2022,09:15:15,TEMP=13.3,BA=5.52,STAT.b=8.0
29/08/2022,09:18:15,TEMP=13.3,BA=5.52,STAT.b=8.0
29/08/2022,09:21:15,TEMP=13.3,BA=5.52,STAT.b=8.0
29/08/2022,09:21:31,TEMP=13.3,BA=5.52,STAT.b=8.0
29/08/2022,09:36:15,TEMP=13.3,BA=5.44,STAT.b=8.0
29/08/2022,09:36:31,TEMP=13.3,BA=5.44,STAT.b=8.0
29/08/2022,09:54:12,TEMP=12.6,BA=5.44,STAT.D,ExtBa=12.30
29/08/2022,09:55:46,TEMP=12.9,BA=5.44,STAT.b=8.0
29/08/2022,09:56:09,TEMP=13.0,BA=5.44,STAT.D,ExtBa=12.30
29/08/2022,09:57:43,TEMP=13.1,BA=5.44,STAT.b=8.0
29/08/2022,10:10:48,TEMP=13.1,BA=5.44,STAT.b=8.0
29/08/2022,10:12:15,TEMP=13.1,BA=5.44,STAT.b=8.0
29/08/2022,10:15:15,TEMP=13.1,BA=5.44,STAT.b=8.0
29/08/2022,10:18:15,TEMP=13.1,BA=5.44,STAT.b=8.0
29/08/2022,10:21:15,TEMP=13.1,BA=5.52,STAT.b=8.0
29/08/2022,10:21:31,TEMP=13.1,BA=5.52,STAT.b=8.0
29/08/2022,10:36:15,TEMP=13.1,BA=5.44,STAT.b=8.0
29/08/2022,10:36:31,TEMP=13.1,BA=5.44,STAT.b=8.0
29/08/2022,10:52:02,TEMP=12.0,BA=5.48,STAT.D,ExtBa=12.30
29/08/2022,10:53:35,TEMP=12.4,BA=5.48,STAT.b=8.0
29/08/2022,10:53:58,TEMP=12.5,BA=5.48,STAT.D,ExtBa=12.30
29/08/2022,10:55:31,TEMP=12.6,BA=5.48,STAT.b=8.0
29/08/2022,11:08:36,TEMP=12.6,BA=5.44,STAT.b=8.0
29/08/2022,11:09:15,TEMP=12.6,BA=5.44,STAT.b=8.0
29/08/2022,11:12:15,TEMP=12.6,BA=5.52,STAT.b=8.0
29/08/2022,11:15:15,TEMP=12.6,BA=5.52,STAT.b=8.0
29/08/2022,11:18:15,TEMP=12.6,BA=5.52,STAT.b=8.0
29/08/2022,11:21:15,TEMP=12.6,BA=5.52,STAT.b=8.0
29/08/2022,11:21:31,TEMP=12.6,BA=5.52,STAT.b=8.0
29/08/2022,11:39:06,TEMP=11.3,BA=5.44,STAT.D,ExtBa=12.30
29/08/2022,11:40:40,TEMP=11.7,BA=5.44,STAT.b=8.0
29/08/2022,11:41:03,TEMP=11.7,BA=5.44,STAT.D,ExtBa=12.30
29/08/2022,11:42:36,TEMP=11.8,BA=5.44,STAT.b=8.0
29/08/2022,11:55:47,TEMP=12.6,BA=5.44,STAT.D,ExtBa=12.30
29/08/2022,11:57:19,TEMP=13.2,BA=5.44,STAT.b=8.0
29/08/2022,12:10:25,TEMP=13.2,BA=5.44,STAT.b=8.0
29/08/2022,12:12:15,TEMP=13.2,BA=5.44,STAT.b=8.0
29/08/2022,12:15:15,TEMP=13.2,BA=5.44,STAT.b=8.0
29/08/2022,12:18:15,TEMP=13.2,BA=5.44,STAT.b=8.0
29/08/2022,12:21:15,TEMP=13.2,BA=5.52,STAT.b=8.0
29/08/2022,12:21:30,TEMP=13.2,BA=5.52,STAT.b=8.0
29/08/2022,12:39:12,TEMP=13.6,BA=5.44,STAT.D,ExtBa=12.30
29/08/2022,12:40:45,TEMP=14.0,BA=5.44,STAT.b=8.0
29/08/2022,12:41:07,TEMP=14.1,BA=5.44,STAT.D,ExtBa=12.30
29/08/2022,12:42:41,TEMP=14.2,BA=5.44,STAT.b=8.0
29/08/2022,12:56:05,STAT.p
29/08/2022,12:56:15,TEMP=14.2,BA=5.44,STAT.b=8.0
29/08/2022,13:09:20,TEMP=14.2,BA=5.44,STAT.b=8.0
29/08/2022,13:12:15,TEMP=14.2,BA=5.52,STAT.b=8.0
29/08/2022,13:15:15,TEMP=14.2,BA=5.52,STAT.b=8.0
29/08/2022,13:18:15,TEMP=14.2,BA=5.52,STAT.b=8.0
29/08/2022,13:21:15,TEMP=14.2,BA=5.52,STAT.b=8.0
29/08/2022,13:21:31,TEMP=14.2,BA=5.52,STAT.b=8.0
29/08/2022,13:36:15,TEMP=14.2,BA=5.44,STAT.b=8.0
29/08/2022,13:36:30,TEMP=14.2,BA=5.44,STAT.b=8.0
29/08/2022,13:51:15,TEMP=14.2,BA=5.52,STAT.b=8.0
29/08/2022,13:51:31,TEMP=14.2,BA=5.52,STAT.b=8.0
29/08/2022,14:09:17,TEMP=12.4,BA=5.44,STAT.D,ExtBa=12.30
29/08/2022,14:10:51,TEMP=12.8,BA=5.44,STAT.b=8.0
29/08/2022,14:11:08,TEMP=12.8,BA=5.44,STAT.b=8.0
29/08/2022,14:21:15,TEMP=12.8,BA=5.52,STAT.b=8.0
29/08/2022,14:21:30,TEMP=12.8,BA=5.52,STAT.b=8.0
29/08/2022,14:36:15,TEMP=12.8,BA=5.44,STAT.b=8.0
29/08/2022,14:36:31,TEMP=12.8,BA=5.44,STAT.b=8.0
29/08/2022,14:51:16,TEMP=12.8,BA=5.52,STAT.b=8.0
29/08/2022,14:51:33,TEMP=12.8,BA=5.52,STAT.b=8.0
29/08/2022,15:06:15,TEMP=12.8,BA=5.48,STAT.b=8.0
29/08/2022,15:06:32,TEMP=12.8,BA=5.48,STAT.b=8.0
29/08/2022,15:09:15,TEMP=12.8,BA=5.48,STAT.b=8.0
29/08/2022,15:12:15,TEMP=12.8,BA=5.52,STAT.b=8.0
29/08/2022,15:15:15,TEMP=12.8,BA=5.52,STAT.b=8.0
29/08/2022,15:18:15,TEMP=12.8,BA=5.52,STAT.b=8.0
29/08/2022,15:21:15,TEMP=12.8,BA=5.52,STAT.b=8.0
29/08/2022,15:21:31,TEMP=12.8,BA=5.52,STAT.b=8.0
29/08/2022,15:34:36,TEMP=12.8,BA=5.44,STAT.b=8.0
29/08/2022,15:36:15,TEMP=12.8,BA=5.44,STAT.b=8.0
29/08/2022,15:39:15,TEMP=12.8,BA=5.44,STAT.b=8.0
29/08/2022,15:42:15,TEMP=12.8,BA=5.52,STAT.b=8.0
29/08/2022,15:45:15,TEMP=12.8,BA=5.52,STAT.b=8.0
29/08/2022,15:48:15,TEMP=12.8,BA=5.52,STAT.b=8.0
29/08/2022,15:51:15,TEMP=12.8,BA=5.52,STAT.b=8.0
29/08/2022,15:52:23,TEMP=12.8,BA=5.52,STAT.b=8.0
29/08/2022,16:09:56,TEMP=11.3,BA=5.44,STAT.D,ExtBa=12.30
29/08/2022,16:11:31,TEMP=11.7,BA=5.44,STAT.b=8.0
29/08/2022,16:11:48,TEMP=11.7,BA=5.44,STAT.b=8.0
29/08/2022,16:24:53,TEMP=11.7,BA=5.48,STAT.b=8.0
29/08/2022,16:27:15,TEMP=11.7,BA=5.48,STAT.b=8.0
29/08/2022,16:30:15,TEMP=11.7,BA=5.52,STAT.b=8.0
29/08/2022,16:33:15,TEMP=11.7,BA=5.52,STAT.b=8.0
29/08/2022,16:36:15,TEMP=11.7,BA=5.52,STAT.b=8.0
29/08/2022,16:36:32,TEMP=11.7,BA=5.52,STAT.b=8.0
29/08/2022,16:39:15,TEMP=11.7,BA=5.52,STAT.b=8.0
29/08/2022,16:42:15,TEMP=11.7,BA=5.52,STAT.b=8.0
29/08/2022,16:45:15,TEMP=11.7,BA=5.52,STAT.b=8.0
29/08/2022,16:46:56,TEMP=11.7,BA=5.52,STAT.b=8.0
29/08/2022,16:59:59,TEMP=11.7,BA=5.44,STAT.b=8.0
29/08/2022,17:03:15,TEMP=11.7,BA=5.48,STAT.b=8.0
29/08/2022,17:03:57,TEMP=11.7,BA=5.48,STAT.b=8.0
29/08/2022,17:17:01,TEMP=11.7,BA=5.48,STAT.b=8.0
29/08/2022,17:17:27,TEMP=11.7,BA=5.48,STAT.b=8.0
29/08/2022,17:18:15,TEMP=11.7,BA=5.48,STAT.b=8.0
29/08/2022,17:21:15,TEMP=11.7,BA=5.52,STAT.b=8.0
29/08/2022,17:24:15,TEMP=11.7,BA=5.52,STAT.b=8.0
29/08/2022,17:27:15,TEMP=11.7,BA=5.52,STAT.b=8.0
29/08/2022,17:30:15,TEMP=11.7,BA=5.52,STAT.b=8.0
29/08/2022,17:30:32,TEMP=11.7,BA=5.52,STAT.b=8.0
29/08/2022,17:43:37,TEMP=11.7,BA=5.48,STAT.b=8.0
29/08/2022,17:45:15,TEMP=11.7,BA=5.48,STAT.b=8.0
29/08/2022,17:48:15,TEMP=11.7,BA=5.48,STAT.b=8.0
29/08/2022,17:49:30,TEMP=11.7,BA=5.48,STAT.b=8.0
29/08/2022,18:02:35,TEMP=11.7,BA=5.48,STAT.b=8.0
29/08/2022,18:03:01,TEMP=11.7,BA=5.48,STAT.b=8.0
29/08/2022,18:16:06,TEMP=11.7,BA=5.48,STAT.b=8.0